Weather History for Lafayette, IN

Change the Weather History Date:

Saturday, March 15, 2014

  Actual Average Record
Temperature  
Mean Temperature 40 °F 40 °F  
Max Temperature 49 °F 50 °F 82 °F (2012)
Min Temperature 31 °F 31 °F 13 °F (1970)
Degree Days  
Heating Degree Days 25 25  
Month to date heating degree days 527 410  
Since 1 July heating degree days 5489 4744  
Cooling Degree Days 0 0  
Month to date cooling degree days 0 0  
Year to date cooling degree days 0 0  
Moisture  
Dew Point 28 °F    
Average Humidity 68    
Maximum Humidity 89    
Minimum Humidity 46    
Precipitation  
Precipitation 0.00 in 0.08 in 0.68 in (1984)
Month to date precipitation 1.06 1.22  
Year to date precipitation 4.40 4.84  
Sea Level Pressure  
Sea Level Pressure 30.06 in    
Wind  
Wind Speed 8 mph (NW)    
Max Wind Speed 21 mph    
Max Gust Speed 27 mph    
Visibility 10 miles    
Events      
T = Trace of Precipitation, MM = Missing Value Source: NWS Daily Summary

Daily Weather History Graph

Daily Weather History Graph

Search for Another Location

Airport:

Trip Planner

Search our weather history database for the weather conditions in past years. The results will help you decide how hot, cold, wet, or windy it might be!

Date:

Astronomy

Mar. 15, 2014 Rise Set
Actual Time 7:59 AM EDT 7:54 PM EDT
Civil Twilight 7:32 AM EDT 8:21 PM EDT
Nautical Twilight 7:00 AM EDT 8:53 PM EDT
Astronomical Twilight 6:28 AM EDT 9:25 PM EDT
Moon 7:13 PM EDT (3/15) 7:11 AM EDT (3/15)
Length of Visible Light 12h 49m
Length of Day
11h 55m
Waxing Gibbous, 99% of the Moon is Illuminated
Mar 15
Waxing Gibbous
Mar 16
Full
Mar 23
Last Quarter
Mar 30
New
Apr 7
First Quarter

Hourly Weather History & Observations

Time (EDT) Temp. Windchill Dew Point Humidity Pressure Visibility Wind Dir Wind Speed Gust Speed Precip Events Conditions
12:54 AM 36.0 °F 33.3 °F 32.0 °F 86% 29.94 in 10.0 mi WSW 3.5 mph - N/A   Partly Cloudy
1:54 AM 35.1 °F 31.0 °F 30.9 °F 85% 29.94 in 10.0 mi WSW 4.6 mph - N/A   Clear
2:54 AM 34.0 °F 29.8 °F 30.0 °F 85% 29.96 in 10.0 mi West 4.6 mph - N/A   Clear
3:54 AM 33.1 °F 28.7 °F 28.9 °F 85% 29.96 in 10.0 mi WSW 4.6 mph - N/A   Clear
4:54 AM 32.0 °F 26.4 °F 28.9 °F 88% 29.95 in 10.0 mi WSW 5.8 mph - N/A   Clear
5:54 AM 33.1 °F 30.0 °F 28.9 °F 85% 29.97 in 10.0 mi WSW 3.5 mph - N/A   Clear
6:54 AM 32.0 °F 27.5 °F 28.9 °F 88% 29.99 in 10.0 mi WSW 4.6 mph - N/A   Clear
7:54 AM 33.1 °F 25.5 °F 28.0 °F 82% 30.01 in 10.0 mi WNW 9.2 mph - N/A   Clear
8:54 AM 34.0 °F 28.0 °F 30.0 °F 85% 30.04 in 10.0 mi West 6.9 mph - N/A   Clear
9:54 AM 37.0 °F 29.3 °F 28.9 °F 73% 30.06 in 10.0 mi WNW 11.5 mph - N/A   Clear
10:54 AM 39.0 °F 33.4 °F 28.9 °F 67% 30.09 in 10.0 mi NNW 8.1 mph - N/A   Clear
11:54 AM 39.9 °F 35.1 °F 28.9 °F 65% 30.11 in 10.0 mi NW 6.9 mph - N/A   Clear
12:54 PM 42.1 °F 37.7 °F 28.9 °F 60% 30.13 in 10.0 mi NNW 6.9 mph - N/A   Clear
1:54 PM 44.1 °F 40.1 °F 28.0 °F 53% 30.13 in 10.0 mi NW 6.9 mph - N/A   Clear
2:54 PM 44.1 °F - 26.1 °F 49% 30.11 in 10.0 mi Calm Calm - N/A   Clear
3:54 PM 46.9 °F - 28.0 °F 48% 30.09 in 10.0 mi Variable 4.6 mph - N/A   Clear
4:54 PM 46.9 °F - 28.0 °F 48% 30.08 in 10.0 mi Variable 3.5 mph - N/A   Scattered Clouds
5:54 PM 48.0 °F - 28.9 °F 48% 30.08 in 10.0 mi NE 9.2 mph - N/A   Partly Cloudy
6:54 PM 45.0 °F 39.3 °F 28.9 °F 53% 30.09 in 10.0 mi NNE 11.5 mph - N/A   Clear
7:54 PM 41.0 °F 35.8 °F 27.0 °F 57% 30.11 in 10.0 mi NNE 8.1 mph - N/A   Clear
8:54 PM 37.9 °F 30.5 °F 28.9 °F 70% 30.14 in 10.0 mi NNE 11.5 mph 23.0 mph N/A   Clear
9:54 PM 34.0 °F 24.2 °F 27.0 °F 75% 30.18 in 10.0 mi NE 15.0 mph 23.0 mph N/A   Clear
10:54 PM 33.1 °F 23.4 °F 26.1 °F 75% 30.17 in 10.0 mi NE 13.8 mph - N/A   Clear
11:54 PM 32.0 °F 21.2 °F 23.0 °F 69% 30.17 in 10.0 mi NE 16.1 mph - N/A   Clear